Atari, India

3:21 PM IST on December 06, 2016 (GMT +0530)
Amritsar

Weather History for VIAR - September, 2013

Change the Weather History Date:

Friday, September 13, 2013

  Actual Average Record
Temperature  
Mean Temperature 86 °F -  
Max Temperature 94 °F 90 °F 98 °F (2015)
Min Temperature 77 °F 73 °F 69 °F (2002)
Cooling Degree Days 20    
Growing Degree Days 36 (Base 50)    
Moisture  
Dew Point 78 °F    
Average Humidity 80    
Maximum Humidity 100    
Minimum Humidity 50    
Precipitation  
Precipitation 0.00 in - - ()
Sea Level Pressure  
Sea Level Pressure 29.81 in    
Wind  
Wind Speed 1 mph ()    
Max Wind Speed 13 mph    
Max Gust Speed -    
Visibility 1.8 miles    
Events Fog    
Averages and records for this station are not official NWS values.
T = Trace of Precipitation, MM = Missing Value Source: Averaged Metar Reports

Daily Weather History Graph

Daily Weather History Graph

Search for Another Location

Airport or City:

Trip Planner

Search our weather history database for the weather conditions in past years. The results will help you decide how hot, cold, wet, or windy it might be!

Date:

Astronomy

Sep. 13, 2013 Rise Set
Actual Time 6:13 AM IST 6:39 PM IST
Civil Twilight 5:49 AM IST 7:03 PM IST
Nautical Twilight 5:20 AM IST 7:32 PM IST
Astronomical Twilight 4:51 AM IST 8:01 PM IST
Moon 1:48 PM IST (9/13) No Moon Set
Length of Visible Light 13h 14m
Length of Day
12h 26m
First Quarter, 56% of the Moon is Illuminated
Sep 13
First Quarter
Sep 19
Full
Sep 27
Last Quarter
Oct 5
New
Oct 12
First Quarter

Hourly Weather History & Observations

Time (IST) Temp. Heat Index Dew Point Humidity Pressure Visibility Wind Dir Wind Speed Gust Speed Precip Events Conditions
12:00 AM 80.6 °F 87.1 °F 77.0 °F 89% 29.83 in 1.2 mi Calm Calm - N/A   Mostly Cloudy
12:30 AM 80.6 °F 87.1 °F 77.0 °F 89% 29.83 in 1.2 mi Calm Calm - N/A   Scattered Clouds
1:00 AM 80.6 °F 87.1 °F 77.0 °F 89% 29.83 in 1.2 mi Calm Calm - N/A   Scattered Clouds
1:30 AM 80.6 °F 87.1 °F 77.0 °F 89% 29.83 in 1.2 mi Calm Calm - N/A   Scattered Clouds
3:00 AM 78.8 °F - 77.0 °F 94% 29.83 in 0.9 mi Calm Calm - N/A   Scattered Clouds
3:30 AM 80.6 °F 87.1 °F 77.0 °F 89% 29.83 in 0.9 mi Calm Calm - N/A   Scattered Clouds
4:00 AM 80.6 °F 87.1 °F 77.0 °F 89% 29.83 in 0.8 mi Calm Calm - N/A   Scattered Clouds
4:30 AM 78.8 °F - 77.0 °F 94% 29.83 in 0.8 mi Calm Calm - N/A   Scattered Clouds
5:00 AM 78.8 °F - 77.0 °F 94% 29.83 in 0.6 mi Calm Calm - N/A   Scattered Clouds
5:30 AM 78.8 °F - 77.0 °F 94% 29.83 in 0.6 mi Calm Calm - N/A   Scattered Clouds
6:00 AM 78.8 °F - 75.2 °F 89% 29.83 in 0.6 mi Calm Calm - N/A   Scattered Clouds
7:00 AM 78.8 °F - 77.0 °F 94% 29.83 in 0.5 mi Calm Calm - N/A Fog Fog
8:00 AM 82.4 °F 92.4 °F 78.8 °F 89% 29.86 in 0.4 mi Calm Calm - N/A Fog Fog
8:30 AM 84 °F - 80 °F 84% 29.83 in 1 mi Calm Calm - -   Mist
8:30 AM 84.2 °F 98.3 °F 80.6 °F 89% 29.86 in 1.2 mi Calm Calm - N/A   Scattered Clouds
9:00 AM 86.0 °F 101.9 °F 80.6 °F 84% 29.86 in 1.6 mi Calm Calm - N/A   Mist
9:30 AM 86.0 °F 101.9 °F 80.6 °F 84% 29.89 in 1.6 mi Calm Calm - N/A   Mist
10:30 AM 89.6 °F 104.7 °F 78.8 °F 70% 29.89 in 2.2 mi Calm Calm - N/A   Haze
11:00 AM 89.6 °F 104.7 °F 78.8 °F 70% 29.86 in 2.2 mi Variable 1.2 mph - N/A   Haze
11:30 AM 91 °F - 79 °F 61% 29.82 in 2 mi 1.2 mph - -   Haze
11:30 AM 91.4 °F 107.2 °F 78.8 °F 66% 29.86 in 2.5 mi Variable 1.2 mph - N/A   Haze
12:00 PM 89.6 °F 108.2 °F 80.6 °F 75% 29.86 in 2.5 mi Variable 2.3 mph - N/A   Haze
12:30 PM 91.4 °F 107.2 °F 78.8 °F 66% 29.83 in 2.5 mi Variable 2.3 mph - N/A   Haze
1:00 PM 91.4 °F 111.0 °F 80.6 °F 71% 29.83 in 2.5 mi Variable 4.6 mph - N/A   Haze
1:30 PM 93.2 °F 110.2 °F 78.8 °F 63% 29.83 in 3.1 mi West 3.5 mph - N/A   Haze
2:00 PM 93.2 °F 110.2 °F 78.8 °F 63% 29.83 in 3.1 mi WNW 6.9 mph - N/A   Haze
2:30 PM 93 °F - 77 °F 50% 29.74 in 2 mi 2.3 mph - -   Partly Cloudy
2:30 PM 93.2 °F 107.2 °F 77.0 °F 59% 29.80 in 3.1 mi Variable 2.3 mph - N/A   Haze
3:00 PM 93.2 °F 107.2 °F 77.0 °F 59% 29.80 in 3.1 mi WNW 9.2 mph - N/A   Haze
3:30 PM 93.2 °F 107.2 °F 77.0 °F 59% 29.77 in 3.1 mi Variable 8.1 mph - N/A   Haze
4:00 PM 93.2 °F 107.2 °F 77.0 °F 59% 29.77 in 3.1 mi Variable 6.9 mph - N/A   Haze
4:30 PM 87.8 °F 99.7 °F 77.0 °F 70% 29.77 in 3.1 mi NW 12.7 mph - N/A   Haze
5:00 PM 87.8 °F 99.7 °F 77.0 °F 70% 29.77 in 3.1 mi Variable 3.5 mph - N/A   Haze
5:30 PM 86 °F - 77 °F 69% 29.71 in 2 mi NW 9.2 mph - -   Haze
5:30 PM 86.0 °F 96.9 °F 77.0 °F 74% 29.77 in 2.5 mi NW 9.2 mph - N/A   Haze
6:00 PM 86.0 °F 96.9 °F 77.0 °F 74% 29.77 in 2.5 mi NW 4.6 mph - N/A   Haze
6:30 PM 84.2 °F 94.1 °F 77.0 °F 79% 29.77 in 2.5 mi Variable 2.3 mph - N/A   Haze
7:00 PM 84.2 °F 96.1 °F 78.8 °F 84% 29.77 in 2.5 mi Calm Calm - N/A   Haze
8:00 PM 82.4 °F 92.4 °F 78.8 °F 89% 29.77 in 1.9 mi Calm Calm - N/A   Mostly Cloudy
8:30 PM 83 °F - 78 °F 82% 29.72 in 1 mi Calm Calm - -   Mist
8:30 PM 82.4 °F 92.4 °F 78.8 °F 89% 29.77 in 1.9 mi Calm Calm - N/A   Scattered Clouds
9:00 PM 82.4 °F 92.4 °F 78.8 °F 89% 29.77 in 1.9 mi Calm Calm - N/A   Scattered Clouds
9:30 PM 82.4 °F 92.4 °F 78.8 °F 89% 29.77 in 1.9 mi Variable 1.2 mph - N/A   Scattered Clouds
10:00 PM 80.6 °F 88.1 °F 78.8 °F 94% 29.77 in 1.6 mi Calm Calm - N/A   Scattered Clouds
10:30 PM 80.6 °F 88.1 °F 78.8 °F 94% 29.77 in 1.6 mi Calm Calm - N/A   Scattered Clouds
11:00 PM 80.6 °F 88.1 °F 78.8 °F 94% 29.77 in 1.6 mi Calm Calm - N/A   Scattered Clouds
11:30 PM 80 °F - 79 °F 96% 29.72 in 1 mi Calm Calm - -   Mist
11:30 PM 78.8 °F - 78.8 °F 100% 29.77 in 1.6 mi Variable 1.2 mph - N/A   Scattered Clouds